This demonstration page uses our WeatherBlox Daily Observations layout. Learn more.

Left ArrowRight Arrow

Hourly Observations for July 5, 2020

Temp ( °F °C ) Dew Point ( °F °C ) Humidity (%) Winds ( mph kmh ) Pressure ( in mb ) Visibility ( mi km ) Precip ( " mm )
12:53 am 00:53 Clear 74 23.3 66 18.9 76 76 ESE 9 15 29.98 1015 10 16 0.00 0.00
1:53 am 01:53 Clear 73 22.8 67 19.4 81 81 SE 8 13 29.98 1015 10 16 0.00 0.00
2:53 am 02:53 Clear 72 22.2 67 19.4 84 84 SE 7 11 29.96 1015 8 13 0.00 0.00
3:53 am 03:53 Clear 72 22.2 67 19.4 84 84 SE 7 11 29.98 1015 8 13 0.00 0.00
4:53 am 04:53 Clear with Mist and Fog 68 20 65 18.3 90 90 SE 3 6 29.99 1016 5 8 0.00 0.00
5:53 am 05:53 Clear with Mist and Fog 67 19.4 64 17.8 91 91 Calm 29.98 1015 4 6 0.00 0.00
6:16 am 06:16 Sunny with Mist and Fog 65 18.3 63 17.2 93 93 NE 3 6 29.99 1015 2 3 0.00 0.00
6:22 am 06:22 Partly Cloudy with Mist and Fog 64 17.8 62 16.7 93 93 NE 5 7 29.99 1016 2 2 0.00 0.00
6:25 am 06:25 Mostly Cloudy with Fog 64 17.8 62 16.7 93 93 NE 5 7 29.99 1016 1 1 0.00 0.00
6:53 am 06:53 Mostly Cloudy with Fog 63 17.2 62 16.7 97 97 ENE 3 6 29.99 1016 N/A 0.00 0.00
7:34 am 07:34 Partly Cloudy with Mist and Fog 67 19.4 66 18.9 97 97 Calm 29.98 1015 1 2 0.00 0.00
7:50 am 07:50 Sunny with Mist and Fog 70 21 66 19 88 88 Calm 29.98 1015 3 4 0.00 0.00
7:53 am 07:53 Sunny with Mist and Fog 70 21.1 68 20 93 93 Calm 29.99 1016 3 4 0.00 0.00
8:01 am 08:01 Sunny with Mist and Fog 71 21.7 68 20 90 90 ESE 3 6 29.97 1015 4 6 0.00 0.00
8:53 am 08:53 Mostly Sunny 75 23.9 69 20.6 82 82 S 5 7 30.00 1016 7 11 0.00 0.00
9:35 am 09:35 Mostly Cloudy with Haze 76 24.4 69 20.6 79 79 SSE 6 9 29.96 1014 6 10 0.00 0.00
9:53 am 09:53 Mostly Cloudy 79 26.1 70 21.1 74 74 VRB 5 7 30.00 1016 7 11 0.00 0.00
10:08 am 10:08 Partly Cloudy 77 25 69 20.6 77 77 ESE 6 9 29.96 1015 8 13 0.00 0.00
10:53 am 10:53 Mostly Cloudy 79 26.1 68 20 69 69 VRB 3 6 30.00 1016 10 16 0.00 0.00
11:07 am 11:07 Mostly Cloudy 80 26.7 69 20.6 69 69 S 9 15 29.94 1014 10 16 0.00 0.00
11:33 am 11:33 Partly Cloudy 82 27.8 68 20 63 63 S 7 11 29.93 1014 10 16 0.00 0.00
11:53 am 11:53 Partly Cloudy 84 28.9 69 20.6 61 61 SSE 9 15 29.99 1016 10 16 0.00 0.00
12:53 pm 12:53 Partly Cloudy 83 28.3 69 20.6 63 63 SSW 7 11 29.98 1015 10 16 0.00 0.00
1:53 pm 13:53 Mostly Cloudy 85 29.4 69 20.6 59 59 SE 8 13 29.96 1015 10 16 0.00 0.00
2:53 pm 14:53 Partly Cloudy 88 31.1 67 19.4 50 50 S 7 11 29.95 1014 10 16 0.00 0.00
3:53 pm 15:53 Partly Cloudy 88 31.1 69 20.6 54 54 VRB 5 7 29.93 1014 10 16 0.00 0.00
4:53 pm 16:53 Cloudy 87 30.6 67 19.4 51 51 S 5 7 29.93 1014 10 16 0.00 0.00
5:15 pm 17:15 Cloudy with Thunderstorms 88 31.1 68 20 52 52 SSE 5 7 29.85 1011 10 16 0.00 0.00
5:36 pm 17:36 Mostly Cloudy 83 28.3 69 20.6 63 63 ENE 9 15 29.87 1012 10 16 0.00 0.00
5:53 pm 17:53 Mostly Sunny 83 28.3 69 20.6 63 63 ENE 5 7 29.93 1014 10 16 0.00 0.00
6:53 pm 18:53 Sunny 86 30 69 20.6 57 57 SSE 10 17 29.91 1013 10 16 0.00 0.00
7:53 pm 19:53 Sunny 84 28.9 69 20.6 61 61 SSE 12 19 29.91 1013 10 16 0.00 0.00
8:53 pm 20:53 Sunny 81 27.2 69 20.6 67 67 SE 8 13 29.91 1013 10 16 0.00 0.00
9:53 pm 21:53 Clear 78 25.6 68 20 71 71 ESE 3 6 29.94 1014 10 16 0.00 0.00
10:53 pm 22:53 Clear 77 25 68 20 74 74 ESE 6 9 29.97 1015 10 16 0.00 0.00
11:53 pm 23:53 Clear 74 23.3 68 20 82 82 SE 6 9 29.98 1015 10 16 0.00 0.00

Powered by AerisWeather